Weather History for Abbeville, LA

Change the Weather History Date:

Tuesday, August 27, 2013

  Actual Average (KARA) Record (KARA)
Temperature  
Mean Temperature 82 °F 82 °F  
Max Temperature 92 °F 92 °F 98 °F (1998)
Min Temperature 72 °F 73 °F 63 °F (1958)
Degree Days  
Heating Degree Days 0 0  
Month to date heating degree days 0  
Since 1 June heating degree days 0  
Since 1 July heating degree days 0  
Cooling Degree Days 17 17  
Month to date cooling degree days 484  
Year to date cooling degree days 2072  
Since 1 June cooling degree days 1502  
Growing Degree Days 32 (Base 50)    
Moisture  
Dew Point 67 °F    
Average Humidity 70    
Maximum Humidity 100    
Minimum Humidity 29    
Precipitation  
Precipitation 0.00 in 0.18 in 2.85 in (1967)
Month to date precipitation 4.35  
Year to date precipitation 40.12  
Sea Level Pressure  
Sea Level Pressure 30.08 in    
Wind  
Wind Speed 2 mph (NE)    
Max Wind Speed 8 mph    
Max Gust Speed -    
Visibility 8 miles    
Events Fog    
T = Trace of Precipitation, MM = Missing Value Source: NWS Daily Summary

Daily Weather History Graph

Daily Weather History Graph

Search for Another Location

Airport:

Trip Planner

Search our weather history database for the weather conditions in past years. The results will help you decide how hot, cold, wet, or windy it might be!

Date:

Astronomy

Aug. 27, 2013 Rise Set
Actual Time 6:42 AM CDT 7:36 PM CDT
Civil Twilight 6:18 AM CDT 8:00 PM CDT
Nautical Twilight 5:49 AM CDT 8:29 PM CDT
Astronomical Twilight 5:19 AM CDT 8:59 PM CDT
Moon No Moon Rise 1:08 PM CDT (8/27)
Length of Visible Light 13h 42m
Length of Day
12h 53m
Waning Gibbous, 57% of the Moon is Illuminated
Aug 27
Waning Gibbous
Aug 28
Last Quarter
Sep 5
New
Sep 12
First Quarter
Sep 19
Full

Hourly Weather History & Observations

Time (CDT) Temp. Heat Index Dew Point Humidity Pressure Visibility Wind Dir Wind Speed Gust Speed Precip Events Conditions
12:15 AM 75.2 °F - 74.8 °F 99% 30.11 in 10.0 mi NE 3.5 mph - N/A   Clear
12:35 AM 75.2 °F - 75.0 °F 99% 30.11 in 10.0 mi Calm Calm - N/A   Clear
12:55 AM 74.8 °F - 74.7 °F 99% 30.11 in 10.0 mi Calm Calm - N/A   Clear
1:15 AM 74.8 °F - 74.7 °F 99% 30.10 in 10.0 mi Calm Calm - N/A   Clear
1:35 AM 74.5 °F - 74.3 °F 99% 30.10 in 10.0 mi Calm Calm - N/A   Clear
1:55 AM 74.5 °F - 74.3 °F 99% 30.09 in 10.0 mi Calm Calm - N/A   Clear
2:15 AM 74.1 °F - 73.9 °F 99% 30.09 in 2.5 mi Calm Calm - N/A   Clear
2:35 AM 73.9 °F - 73.8 °F 99% 30.08 in 0.5 mi Calm Calm - N/A Fog Fog
2:55 AM 73.6 °F - 73.4 °F 99% 30.08 in 0.8 mi Calm Calm - N/A   Mist
3:15 AM 72.5 °F - 72.3 °F 99% 30.08 in 0.8 mi NNW 3.5 mph - N/A   Mostly Cloudy
3:35 AM 72.3 °F - 72.1 °F 99% 30.08 in 0.5 mi NNW 3.5 mph - N/A Fog Fog
3:55 AM 72.1 °F - 72.0 °F 99% 30.08 in 0.5 mi Calm Calm - N/A Fog Fog
4:15 AM 72.7 °F - 72.5 °F 99% 30.08 in 0.5 mi North 3.5 mph - N/A Fog Fog
4:35 AM 72.9 °F - 72.7 °F 99% 30.08 in 0.5 mi Calm Calm - N/A Fog Fog
4:55 AM 72.1 °F - 72.0 °F 99% 30.09 in 0.2 mi Calm Calm - N/A Fog Fog
5:15 AM 72.5 °F - 72.5 °F 100% 30.09 in 0.2 mi North 3.5 mph - N/A Fog Fog
5:35 AM 73.4 °F - 73.2 °F 99% 30.10 in 0.5 mi Calm Calm - N/A Fog Fog
5:55 AM 73.4 °F - 73.4 °F 100% 30.11 in 1.5 mi NNE 3.5 mph - N/A   Overcast
6:15 AM 73.4 °F - 73.4 °F 100% 30.11 in 2.5 mi Calm Calm - N/A   Overcast
6:35 AM 73.4 °F - 72.9 °F 98% 30.11 in 2.5 mi Calm Calm - N/A   Overcast
6:55 AM 73.4 °F - 73.0 °F 99% 30.12 in 2.0 mi Calm Calm - N/A   Mostly Cloudy
7:15 AM 73.4 °F - 73.0 °F 99% 30.12 in 2.0 mi Calm Calm - N/A   Mostly Cloudy
7:35 AM 73.8 °F - 73.4 °F 99% 30.13 in 2.5 mi Calm Calm - N/A   Scattered Clouds
7:55 AM 74.5 °F - 74.3 °F 99% 30.13 in 3.0 mi Calm Calm - N/A   Clear
8:15 AM 75.4 °F - 75.0 °F 99% 30.12 in 7.0 mi Calm Calm - N/A   Clear
8:35 AM 76.5 °F - 76.3 °F 99% 30.12 in 10.0 mi Calm Calm - N/A   Scattered Clouds
8:55 AM 77.4 °F - 77.2 °F 99% 30.13 in 10.0 mi NE 3.5 mph - N/A   Mostly Cloudy
9:15 AM 77.7 °F - 77.2 °F 98% 30.13 in 10.0 mi NE 5.8 mph - N/A   Scattered Clouds
9:35 AM 80.4 °F 85.3 °F 73.9 °F 81% 30.13 in 10.0 mi NE 3.5 mph - N/A   Mostly Cloudy
9:55 AM 83.5 °F 88.8 °F 71.8 °F 68% 30.13 in 10.0 mi NE 4.6 mph - N/A   Scattered Clouds
10:15 AM 84.4 °F 87.6 °F 68.0 °F 58% 30.13 in 10.0 mi NE 3.5 mph - N/A   Clear
10:35 AM 84.7 °F 87.6 °F 67.5 °F 56% 30.13 in 10.0 mi NE 5.8 mph - N/A   Clear
10:55 AM 86.2 °F 88.4 °F 66.0 °F 51% 30.13 in 10.0 mi East 4.6 mph - N/A   Clear
11:15 AM 86.9 °F 87.2 °F 61.7 °F 43% 30.13 in 10.0 mi Calm Calm - N/A   Clear
11:35 AM 87.3 °F 87.2 °F 60.8 °F 41% 30.12 in 10.0 mi NE 4.6 mph - N/A   Clear
11:55 AM 88.2 °F 87.8 °F 60.4 °F 39% 30.11 in 10.0 mi ENE 3.5 mph - N/A   Clear
12:15 PM 89.1 °F 88.0 °F 58.1 °F 35% 30.11 in 10.0 mi NE 8.1 mph - N/A   Clear
12:35 PM 89.1 °F 87.5 °F 56.1 °F 33% 30.10 in 10.0 mi ENE 6.9 mph - N/A   Scattered Clouds
12:55 PM 90.0 °F 88.6 °F 56.8 °F 33% 30.10 in 10.0 mi ENE 6.9 mph - N/A   Scattered Clouds
1:15 PM 89.1 °F 88.0 °F 58.1 °F 35% 30.09 in 10.0 mi NE 4.6 mph - N/A   Mostly Cloudy
1:35 PM 88.0 °F 87.4 °F 59.2 °F 38% 30.09 in 10.0 mi NE 3.5 mph - N/A   Scattered Clouds
1:55 PM 90.7 °F 89.5 °F 57.7 °F 33% 30.08 in 10.0 mi NNE 6.9 mph - N/A   Scattered Clouds
2:15 PM 90.5 °F 88.5 °F 54.9 °F 30% 30.08 in 10.0 mi NE 5.8 mph - N/A   Mostly Cloudy
2:35 PM 88.7 °F 87.3 °F 57.0 °F 34% 30.07 in 10.0 mi North 4.6 mph - N/A   Scattered Clouds
2:55 PM 89.8 °F 88.4 °F 57.4 °F 33% 30.06 in 10.0 mi ENE 4.6 mph - N/A   Mostly Cloudy
3:15 PM 90.9 °F 88.9 °F 55.2 °F 30% 30.06 in 10.0 mi NNE 3.5 mph - N/A   Scattered Clouds
3:35 PM 92.1 °F 91.4 °F 58.8 °F 33% 30.05 in 10.0 mi East 3.5 mph - N/A   Scattered Clouds
3:55 PM 90.3 °F 88.5 °F 55.8 °F 31% 30.05 in 10.0 mi Calm Calm - N/A   Scattered Clouds
4:15 PM 91.4 °F 89.6 °F 55.9 °F 30% 30.05 in 10.0 mi ENE 4.6 mph - N/A   Scattered Clouds
4:35 PM 90.9 °F 88.7 °F 54.9 °F 29% 30.05 in 10.0 mi Calm Calm - N/A   Scattered Clouds
4:55 PM 90.9 °F 88.9 °F 55.6 °F 30% 30.04 in 10.0 mi Calm Calm - N/A   Clear
5:15 PM 90.7 °F 89.0 °F 55.8 °F 31% 30.04 in 10.0 mi Calm Calm - N/A   Clear
5:35 PM 90.7 °F 89.0 °F 56.3 °F 31% 30.04 in 10.0 mi ENE 3.5 mph - N/A   Scattered Clouds
5:55 PM 90.0 °F 87.9 °F 54.7 °F 30% 30.04 in 10.0 mi NE 3.5 mph - N/A   Clear
6:15 PM 89.2 °F 88.2 °F 58.6 °F 35% 30.04 in 10.0 mi ENE 3.5 mph - N/A   Clear
6:35 PM 87.8 °F 87.6 °F 60.8 °F 40% 30.03 in 10.0 mi East 3.5 mph - N/A   Scattered Clouds
6:55 PM 86.9 °F 87.2 °F 61.7 °F 43% 30.03 in 10.0 mi Calm Calm - N/A   Scattered Clouds
7:15 PM 85.5 °F 86.6 °F 63.5 °F 48% 30.03 in 10.0 mi Calm Calm - N/A   Clear
7:35 PM 83.1 °F 85.7 °F 66.9 °F 58% 30.03 in 10.0 mi Calm Calm - N/A   Clear
7:55 PM 81.7 °F 84.3 °F 67.5 °F 62% 30.04 in 10.0 mi Calm Calm - N/A   Clear
8:15 PM 81.0 °F 83.6 °F 67.6 °F 64% 30.04 in 10.0 mi Calm Calm - N/A   Clear
8:35 PM 79.7 °F - 69.8 °F 72% 30.05 in 10.0 mi Calm Calm - N/A   Clear
8:55 PM 79.0 °F - 70.2 °F 74% 30.05 in 10.0 mi Calm Calm - N/A   Clear
9:15 PM 79.0 °F - 68.0 °F 69% 30.05 in 10.0 mi Calm Calm - N/A   Clear
9:35 PM 78.4 °F - 68.9 °F 72% 30.05 in 10.0 mi Calm Calm - N/A   Clear
9:55 PM 77.9 °F - 68.5 °F 73% 30.05 in 10.0 mi Calm Calm - N/A   Clear
10:15 PM 76.1 °F - 72.5 °F 89% 30.05 in 10.0 mi Calm Calm - N/A   Clear
10:35 PM 75.7 °F - 71.6 °F 87% 30.05 in 10.0 mi Calm Calm - N/A   Clear
10:55 PM 75.4 °F - 71.2 °F 87% 30.05 in 10.0 mi Calm Calm - N/A   Clear
11:15 PM 74.7 °F - 72.1 °F 92% 30.05 in 10.0 mi Calm Calm - N/A   Clear
11:35 PM 74.5 °F - 71.8 °F 91% 30.05 in 10.0 mi Calm Calm - N/A   Clear
11:55 PM 73.8 °F - 72.0 °F 94% 30.05 in 7.0 mi Calm Calm - N/A   Clear